Regional Weather Roundup
Issued by NWS Northern Indiana

Home | Current Version | Previous Version | Text Only | Print | Product List | Glossary Off
Versions: 1 2 3 4 5 6 7 8 9 10 11 12 13 14 15 16 17 18 19 20 21 22 23 24 25 26 27 28 29 30 31 32 33 34 35 36 37 38 39 40 41 42 43 44 45 46 47 48 49 50

000
ASUS43 KIWX 221900
RWRIWX

KIWX WEATHER ROUNDUP
NATIONAL WEATHER SERVICE NORTHERN INDIANA
300 PM EDT WED OCT 22 2014

NOTE: "FAIR" INDICATES FEW OR NO CLOUDS BELOW 12,000 FEET WITH NO
SIGNIFICANT WEATHER AND/OR OBSTRUCTIONS TO VISIBILITY.

* THESE STATIONS ARE NOT UNDER NWS QUALITY CONTROL. THEY ALSO MAY NOT
  REPORT WEATHER SUCH AS PRECIPITATION OR FOG.

INZ001>027-222000-
NORTHERN INDIANA

CITY           SKY/WX    TMP DP  RH WIND       PRES   REMARKS
GARY*          SUNNY     54  36  50 NE8       30.34F
SOUTH BEND     SUNNY     55  32  41 CALM      30.33F
GOSHEN         MOSUNNY   49  40  71 E9        30.32F
ANGOLA*        CLOUDY    45  32  61 NE5       30.32F
FORT WAYNE     MOSUNNY   51  40  65 NE3       30.32F
PERU/GRISSOM   SUNNY     56  43  63 VRB5      30.29F

$$
INZ028>050-222000-
CENTRAL INDIANA

CITY           SKY/WX    TMP DP  RH WIND       PRES   REMARKS
LAFAYETTE      SUNNY     55  38  52 VRB7      30.30F
KOKOMO*        SUNNY     57  41  54 N5        30.30F
MUNCIE*        MOSUNNY   55  41  59 NE6       30.29F
INDIANAPOLIS   MOSUNNY   55  40  56 NE7       30.28F

$$
MIZ043>046-050>051-056>058-064>065-071>073-077>080-222000-
SOUTHWEST LOWER MICHIGAN

CITY           SKY/WX    TMP DP  RH WIND       PRES   REMARKS
BATTLE CREEK   CLOUDY    47  38  71 NE3       30.34F
BENTON HARBOR  SUNNY     51  36  56 N5        30.33F
COLDWATER*     CLOUDY    46  40  77 N3        30.33S
HILLSDALE*     CLOUDY    47  41  79 N6        30.31F
HOLLAND        SUNNY     53  36  52 E9        30.34F
GRAND RAPIDS   MOSUNNY   50  39  66 NE8       30.34F
KALAMAZOO      CLOUDY    48  38  68 VRB3      30.34F
STURGIS*       CLOUDY    45  39  81 CALM      30.33S
THREE RIVERS*  CLOUDY    46  39  76 CALM      30.34F

$$
OHZ001>008-015>018-024>025-222000-
NORTHWEST OHIO

CITY           SKY/WX    TMP DP  RH WIND       PRES   REMARKS
DEFIANCE       CLOUDY    48  39  71 N7        30.32F
FINDLAY        CLOUDY    50  40  68 N9        30.29F
TOLEDO EXPRESS PTSUNNY   51  40  65 N9        30.31F
TOLEDO METCALF PTSUNNY   53  40  61 NE5       30.30F
LIMA           CLOUDY    49  41  74 N8        30.30F

$$
AND FOR LAKE MICHIGAN COASTAL AND OPEN LAKE BUOY OBSERVATIONS

STATION/POSITION TEMP    WIND        PRES    VSBY  WAVE
                 AIR SEA DIR/SP/G                  HT/PER
                 (F)     (DEG/KT/KT) (MB)    (MI)  (FT/S)
CALUMET HARBOR    48      50/  5/  7 1026.1F
MICHIGAN CITY     47     360/ 10/ 12   N/A
SAINT JOSEPH      49                 1027.1F
SOUTH LAKE BUOY   47 54  130/  4/  6 1028.8F         1/ 3

$$
&&



USA.gov is the U.S. government's official web portal to all federal, state and local government web resources and services.